Wind_Speed
57 54 53 54 54 52 50 47 45 46 47 47 48 50 52 54 57 60 63 64 64 65 66 68 69 71 73 74 75 75 75 73 72 76 73 71 70 70 67 65 63 63 64
66 63 60 58 58 58 58 56 53 50 49 49 50 51 52 53 55 59 61 63 65 66 66 67 70 71 73 76 77 79 78 76 76 77 77 75 74 74 72 69 68 67 68
75 72 69 67 64 63 62 62 62 61 58 56 55 53 54 55 55 57 60 62 64 66 68 67 71 72 73 76 80 81 80 79 79 78 80 78 77 77 75 73 71 72 72
82 80 78 75 72 70 68 66 66 66 67 65 63 61 59 59 59 60 61 62 63 65 69 70 72 74 75 77 79 82 83 83 82 80 81 84 81 81 79 77 76 77 76
87 86 85 83 80 78 75 73 71 71 70 70 71 70 68 66 64 63 64 65 66 68 69 73 75 76 77 79 80 83 85 85 85 84 83 84 86 86 85 85 83 83 80
89 90 91 90 88 86 84 81 78 77 75 76 76 75 75 75 74 71 70 69 70 71 73 76 79 80 80 82 83 84 86 88 88 89 88 86 89 90 90 89 90 86 84
92 93 93 94 94 93 92 89 87 85 83 82 81 80 80 80 79 80 78 78 77 77 77 79 82 85 85 85 85 86 88 90 91 93 92 93 94 95 96 94 93 93 90
92 95 96 96 98 99 99 97 95 93 91 89 88 87 86 86 85 83 83 84 84 84 84 84 85 87 90 90 90 91 91 92 94 96 96 96 97 98 100 101 100 99 97
94 94 97 99 101 102 103 103 103 101 100 98 96 94 92 92 91 89 89 89 89 90 90 89 90 92 93 95 95 97 97 97 98 98 99 100 101 101 103 103 103 105 102
96 98 99 100 101 104 106 108 108 108 106 105 104 103 101 100 98 97 96 95 95 94 94 95 97 96 96 98 97 98 101 104 105 103 103 102 104 105 106 106 107 106 106
95 98 100 101 103 105 108 110 112 111 112 112 111 110 109 108 107 105 104 103 101 100 101 101 101 101 102 102 103 103 104 106 109 109 110 110 110 110 111 111 111 109 108
96 98 100 102 104 106 107 110 112 114 115 115 116 116 115 115 114 113 112 111 110 108 107 106 107 107 107 107 107 108 108 108 108 110 111 114 116 118 118 118 118 116 115
98 99 100 101 104 106 109 110 111 113 116 118 119 119 120 120 120 119 119 119 118 116 115 114 114 113 113 114 113 113 113 112 112 113 113 113 115 116 118 121 122 123 123
98 100 101 102 104 105 108 111 113 114 115 117 120 122 123 124 124 124 124 124 125 124 123 121 121 120 120 120 120 120 120 120 119 118 117 117 118 119 119 120 119 119 118
94 97 100 103 105 106 108 110 111 114 116 118 120 122 124 126 128 128 128 128 129 129 129 129 129 127 127 127 126 127 127 127 126 125 125 124 124 124 123 124 123 122 121
89 92 96 99 101 104 106 109 113 115 116 119 121 123 124 126 127 130 131 132 132 133 133 133 134 134 134 134 133 133 134 134 133 132 131 131 130 130 130 130 130 129 128
87 88 90 91 95 99 101 103 105 109 114 118 121 123 125 127 128 129 131 132 135 136 137 137 138 138 138 138 138 139 139 140 140 140 138 138 136 135 135 134 134 134 132
83 87 89 91 92 94 94 96 98 102 105 108 113 118 122 126 129 130 131 132 133 135 137 139 141 142 142 141 142 142 142 143 144 144 143 143 142 141 140 139 138 137 135
73 77 81 85 88 91 93 95 96 98 101 103 105 108 111 115 119 123 126 129 131 132 134 136 138 139 140 142 143 145 144 144 145 146 147 148 148 146 145 144 143 143 142
65 68 71 75 78 82 85 89 92 95 97 100 102 104 107 109 111 113 116 118 121 123 126 128 131 133 135 137 139 141 142 141 142 144 147 149 150 149 148 148 148 147 148
57 60 63 67 70 73 76 79 82 85 89 93 96 99 102 105 107 109 111 113 114 116 118 120 121 123 124 125 126 128 130 133 135 136 138 142 144 145 145 144 145 146 146
50 53 55 59 63 66 69 72 75 78 80 83 86 88 91 93 96 99 102 105 106 108 111 113 114 115 117 118 119 120 121 122 124 125 125 126 128 130 133 136 138 139 141
48 50 53 55 58 62 65 68 71 74 76 79 82 84 86 88 90 91 93 94 96 97 98 100 101 102 103 103 105 107 110 112 113 115 115 117 120 122 123 124 125 126 126
45 48 50 53 56 59 61 64 66 69 71 74 76 78 79 81 81 82 84 86 88 89 90 92 93 94 95 97 97 98 99 100 102 104 105 106 108 111 113 114 115 117 119
44 46 49 51 54 56 59 61 63 65 67 68 69 70 71 74 75 76 77 78 80 81 83 83 83 84 85 86 88 89 89 90 91 93 94 96 97 99 101 103 105 105 108
45 47 48 50 52 53 54 56 58 59 61 62 64 64 66 68 69 70 70 71 72 74 75 76 75 75 77 79 80 81 81 82 83 83 83 84 86 88 90 90 92 94 95
Wind_Direction
254 251 250 251 252 252 252 250 246 243 247 245 244 242 243 244 243 242 241 240 238 238 238 237 237 238 238 239 240 241 242 243 243 248 249 250 251 252 255 257 260 262 265
252 252 251 250 248 249 250 251 251 247 246 247 245 244 243 243 243 244 243 242 240 239 238 238 238 238 239 239 240 241 242 243 245 250 252 253 254 255 255 257 260 262 264
250 250 250 249 249 248 247 248 249 250 248 248 248 246 244 243 243 243 245 244 244 242 240 239 239 239 241 241 241 241 243 243 245 247 253 253 254 256 257 259 261 262 263
250 249 249 249 248 248 248 248 247 248 249 249 248 248 247 245 244 244 244 244 245 244 242 241 241 241 241 242 242 242 243 244 246 246 249 254 255 256 258 258 257 260 261
250 250 249 248 248 248 248 248 248 248 248 248 248 248 248 247 246 244 244 245 245 245 244 242 242 242 242 243 243 243 244 245 247 248 248 252 256 257 258 259 259 259 260
249 248 249 249 248 247 248 247 247 248 248 248 248 248 248 247 247 247 246 246 246 247 246 245 244 244 244 244 244 245 246 246 247 248 248 248 252 255 256 258 260 261 262
247 246 246 247 247 248 247 247 247 247 247 248 248 248 249 249 248 247 247 249 248 247 247 246 246 246 246 246 246 246 247 247 247 249 249 251 251 253 256 258 260 263 264
251 248 246 245 245 246 247 247 246 246 247 247 248 248 248 249 249 249 248 248 249 250 249 248 248 247 247 247 248 249 249 249 249 250 250 251 252 253 255 257 260 262 264
250 250 249 247 246 245 245 246 247 246 246 247 247 247 247 249 250 249 249 249 249 249 250 250 251 250 250 249 248 249 250 251 251 252 253 253 253 254 255 257 259 260 262
250 250 249 248 247 247 245 245 245 246 247 247 246 247 248 247 248 248 249 249 250 250 251 251 250 251 252 253 252 251 250 251 252 253 254 254 255 256 257 258 259 261 262
250 249 249 249 249 248 247 246 245 245 246 246 247 247 247 248 248 249 248 248 248 249 250 251 252 252 252 252 253 253 252 252 253 253 253 254 255 255 256 258 259 260 262
250 250 249 249 249 249 248 248 247 246 246 246 246 247 247 248 248 248 249 249 249 249 249 250 251 252 252 253 254 255 255 255 254 255 256 256 256 256 257 257 259 260 261
251 251 250 249 249 248 249 249 249 248 248 248 248 248 248 248 248 249 249 250 250 250 250 250 250 251 252 253 253 253 254 255 255 256 256 257 258 258 258 259 259 260 260
252 250 250 250 250 249 249 249 249 250 250 250 249 250 250 249 249 249 249 250 251 251 251 250 250 251 252 252 253 254 255 255 255 256 256 257 258 259 260 260 261 261 262
253 253 252 250 248 249 250 250 249 250 251 251 251 251 251 251 251 251 251 250 250 251 252 252 252 251 251 252 253 254 255 255 255 256 256 256 257 258 259 260 261 262 263
255 254 254 253 253 251 250 250 250 250 251 251 251 251 252 253 253 253 253 253 253 252 253 253 252 252 252 252 252 253 254 255 256 256 256 256 256 257 257 258 260 261 262
256 255 255 255 255 255 254 253 252 251 251 251 252 253 253 253 253 254 254 254 254 254 255 255 255 255 254 254 253 253 254 254 255 257 257 257 258 258 258 258 259 260 261
254 254 255 255 255 256 256 256 256 256 256 255 254 254 254 254 255 255 255 255 255 256 256 256 256 257 257 256 256 256 256 256 256 257 257 258 258 258 259 259 259 260 260
255 255 255 254 254 255 255 256 256 256 256 256 256 257 257 257 257 257 258 259 259 259 259 258 258 259 259 259 258 258 258 258 258 258 258 258 258 258 258 258 259 260 260
257 255 255 255 256 256 256 256 257 257 256 256 257 257 257 258 259 259 259 259 259 259 260 260 260 260 260 260 260 261 260 260 259 259 260 261 261 260 260 259 259 259 260
260 259 259 258 258 259 259 259 259 259 259 259 259 260 260 260 260 259 259 260 260 261 261 262 263 263 263 263 263 263 263 262 262 262 261 260 259 260 261 261 262 262 261
262 260 259 258 259 260 260 260 261 261 262 262 263 263 263 263 263 263 263 263 263 262 263 263 263 263 263 263 264 264 264 264 264 264 264 263 263 262 261 261 261 261 262
267 265 264 262 261 260 261 261 261 261 262 262 263 263 264 264 265 265 265 265 265 265 265 265 265 265 265 263 262 262 262 262 261 261 261 261 261 262 262 262 262 262 261
268 267 267 268 268 268 268 268 268 268 268 268 267 268 268 269 269 269 269 268 268 266 265 265 265 265 265 265 264 263 262 261 261 261 260 260 259 260 260 261 261 261 261
272 272 270 270 270 270 271 272 272 273 273 273 273 273 273 271 270 270 270 270 270 269 269 268 267 266 266 265 265 265 264 263 262 262 261 261 260 259 259 259 259 259 259
280 280 281 280 280 279 279 278 278 277 277 276 276 276 275 274 274 273 273 272 272 271 271 270 269 267 267 267 266 266 266 265 264 263 262 261 260 260 260 259 259 259 258
Height
10654 10656 10657 10658 10660 10661 10662 10664 10665 10666 10668 10669 10672 10674 10677 10680 10684 10687 10689 10693 10696 10699 10704 10709 10713 10717 10723 10728 10733 10739 10744 10748 10753 10746 10753 10756 10760 10762 10765 10768 10769 10770 10770
10635 10638 10641 10642 10644 10646 10648 10650 10652 10654 10655 10656 10657 10660 10662 10665 10669 10672 10675 10678 10681 10684 10687 10693 10696 10701 10707 10711 10715 10720 10726 10731 10737 10735 10736 10741 10744 10746 10749 10753 10753 10754 10753
10613 10617 10620 10623 10626 10628 10630 10632 10636 10638 10641 10643 10644 10645 10648 10650 10653 10656 10659 10662 10665 10668 10672 10676 10678 10684 10689 10693 10698 10704 10708 10713 10719 10723 10717 10722 10726 10727 10732 10735 10737 10736 10736
10588 10593 10598 10603 10606 10609 10612 10614 10617 10619 10622 10625 10628 10630 10632 10634 10636 10639 10642 10645 10648 10651 10655 10659 10662 10666 10671 10674 10679 10684 10689 10694 10698 10705 10706 10700 10705 10706 10711 10715 10715 10717 10718
10564 10568 10572 10577 10582 10587 10591 10594 10598 10601 10603 10605 10608 10611 10614 10616 10620 10622 10624 10627 10631 10633 10636 10640 10643 10647 10651 10655 10660 10664 10668 10674 10678 10683 10689 10687 10684 10686 10688 10688 10694 10694 10701
10534 10540 10544 10550 10555 10560 10566 10572 10576 10580 10582 10585 10587 10590 10593 10596 10599 10603 10606 10609 10612 10614 10618 10621 10624 10626 10631 10634 10639 10644 10648 10653 10657 10660 10665 10669 10667 10664 10664 10666 10668 10676 10682
10502 10508 10514 10520 10526 10532 10538 10545 10550 10555 10559 10562 10564 10568 10570 10573 10577 10582 10587 10589 10592 10594 10597 10599 10602 10605 10608 10613 10618 10622 10626 10630 10634 10636 10642 10645 10647 10645 10643 10648 10648 10650 10657
10474 10479 10484 10490 10495 10501 10507 10514 10521 10526 10531 10536 10540 10543 10547 10549 10553 10559 10564 10567 10569 10572 10575 10577 10579 10582 10585 10591 10595 10598 10602 10605 10609 10612 10617 10620 10623 10624 10624 10625 10627 10630 10633
10443 10448 10453 10459 10465 10472 10477 10484 10489 10495 10502 10507 10511 10516 10521 10524 10528 10535 10540 10543 10545 10547 10551 10555 10557 10559 10560 10563 10571 10574 10578 10581 10583 10585 10591 10596 10598 10598 10599 10602 10606 10605 10613
10411 10416 10421 10427 10434 10439 10445 10450 10457 10464 10470 10476 10481 10486 10491 10495 10499 10504 10510 10515 10520 10525 10526 10527 10528 10532 10536 10539 10545 10549 10552 10551 10554 10560 10565 10568 10569 10572 10572 10575 10578 10583 10586
10380 10384 10388 10394 10401 10407 10412 10418 10424 10430 10437 10442 10448 10454 10459 10465 10469 10474 10479 10484 10490 10495 10498 10500 10503 10507 10508 10510 10511 10516 10522 10524 10527 10531 10534 10537 10540 10543 10545 10546 10549 10555 10560
10346 10352 10357 10362 10367 10373 10379 10384 10391 10396 10402 10408 10413 10419 10424 10430 10437 10442 10445 10450 10456 10464 10468 10471 10473 10475 10477 10483 10485 10488 10492 10496 10499 10501 10504 10508 10509 10512 10513 10517 10519 10525 10529
10313 10318 10325 10330 10335 10339 10344 10350 10356 10362 10368 10374 10379 10385 10389 10395 10401 10408 10411 10415 10421 10428 10434 10439 10442 10445 10447 10448 10452 10456 10458 10462 10467 10470 10474 10475 10475 10478 10481 10484 10486 10490 10496
10279 10285 10292 10297 10302 10307 10312 10317 10322 10328 10334 10340 10344 10350 10354 10359 10365 10371 10376 10380 10384 10389 10397 10403 10408 10412 10415 10417 10418 10420 10424 10428 10432 10437 10442 10445 10446 10447 10448 10450 10453 10456 10461
10246 10249 10254 10261 10269 10274 10280 10285 10290 10295 10299 10304 10308 10312 10317 10321 10327 10333 10339 10344 10347 10351 10357 10363 10368 10375 10379 10382 10384 10385 10387 10390 10395 10400 10405 10409 10413 10415 10416 10416 10418 10422 10427
10216 10219 10224 10228 10234 10241 10246 10252 10257 10261 10265 10268 10272 10276 10280 10284 10289 10294 10300 10305 10309 10312 10316 10322 10327 10333 10338 10342 10346 10348 10349 10350 10353 10359 10364 10369 10374 10377 10381 10382 10384 10387 10392
10188 10191 10195 10199 10204 10207 10212 10217 10223 10227 10230 10234 10238 10242 10245 10248 10252 10256 10260 10265 10269 10273 10276 10280 10283 10288 10294 10298 10303 10308 10311 10312 10315 10317 10323 10327 10332 10338 10342 10346 10348 10351 10357
10160 10162 10166 10170 10174 10178 10183 10187 10190 10193 10198 10203 10206 10208 10210 10213 10215 10218 10221 10225 10229 10232 10235 10239 10242 10245 10249 10254 10258 10264 10269 10273 10274 10277 10281 10286 10291 10297 10301 10305 10310 10312 10317
10134 10137 10139 10142 10146 10149 10151 10154 10158 10162 10164 10168 10170 10172 10174 10178 10181 10182 10184 10187 10189 10193 10195 10198 10200 10202 10205 10209 10213 10218 10224 10228 10231 10233 10235 10239 10244 10252 10257 10263 10267 10271 10274
10112 10113 10115 10118 10120 10123 10125 10127 10129 10131 10133 10134 10136 10139 10140 10141 10143 10145 10146 10149 10150 10151 10152 10153 10155 10158 10162 10165 10168 10171 10174 10180 10187 10190 10192 10192 10195 10201 10208 10214 10220 10227 10231
10092 10095 10096 10097 10098 10099 10100 10101 10102 10103 10104 10104 10105 10106 10107 10107 10108 10110 10111 10112 10113 10113 10114 10115 10116 10118 10120 10122 10126 10127 10130 10132 10136 10141 10146 10149 10150 10153 10157 10164 10169 10174 10182
10074 10075 10076 10077 10077 10077 10077 10076 10076 10076 10077 10077 10076 10075 10075 10076 10076 10076 10076 10077 10079 10081 10082 10082 10082 10083 10084 10085 10085 10086 10087 10090 10092 10095 10098 10101 10104 10108 10112 10116 10122 10127 10131
10058 10058 10057 10056 10056 10055 10054 10053 10052 10051 10050 10048 10047 10047 10046 10045 10045 10044 10044 10044 10045 10045 10044 10044 10044 10044 10044 10045 10046 10046 10046 10046 10049 10051 10055 10057 10060 10060 10065 10069 10073 10078 10083
10039 10039 10038 10037 10036 10035 10034 10033 10031 10029 10027 10025 10022 10020 10020 10019 10018 10017 10014 10011 10009 10009 10009 10007 10007 10008 10007 10005 10006 10007 10008 10010 10011 10012 10015 10019 10022 10022 10026 10029 10034 10037 10039
10024 10022 10020 10019 10017 10015 10013 10011 10009 10006 10004 10001 9999 9997 9994 9991 9988 9987 9985 9983 9980 9977 9975 9975 9976 9975 9973 9973 9972 9972 9973 9975 9977 9978 9981 9982 9985 9987 9989 9993 9997 10002 10005
10009 10006 10004 10002 9999 9997 9994 9991 9988 9985 9982 9979 9976 9973 9969 9966 9963 9960 9957 9955 9952 9949 9946 9944 9945 9945 9943 9941 9941 9941 9942 9942 9943 9944 9948 9950 9953 9954 9956 9960 9963 9967 9971